STARLINK-37146, 68555

Orbit data source: Space-Track

STARLINK-37146, 68555 is a payload satellite owned by SpaceX/Seattle (US) in LEO that was launched on Thu, 02 Apr 2026 UTC via an FALCON 9 launch vehicle from the Air Force Eastern Test Range (AFETR). Payload-class satellites include a variety of spacecraft equipped with specific instruments for various scientific and technological missions. These include communications satellites like Starlink; space stations such as the ISS; scientific satellites like the Hubble; Earth observation satellites from companies like Planet Labs, Umbra, and HawkEye 360; GPS; miniature CubeSats for education and research; and military/defense satellites.

Loading next visibility...
Identifier
68555, 2026-070P
Orbit
LEO
Country
Flag of USUS
Related business
Manufacturer
SpaceX/Seattle
Mission
Operational spacecraft
Bus & Motor
STARLINK V2MO, Unknown motor
Mass
575 kg wet, ~530 kg dry
Launch date (UTC)
2026-04-02 (2 months ago)
Launch vehicle
FALCON 9
Launch site
Air Force Eastern Test Range (AFETR)
Object type
Payload
Rocket body
Debris
Shape & HBR
Unknown shape, 14.5 m
Radar Cross Section
RCS unknown

Expand to show TLE details & history
Last TLE update: 17 hours ago

TLE from 17 hours ago
0 STARLINK-37146
1 68555U 26070P   26145.31758589  .00031251  00000-0  93274-3 0  9998
2 68555  53.1594   6.1658 0001065  86.8910 273.2215 15.34382157  8298
Epoch: 2026-05-25T07:37Z
TLE epoch observation values (Epoch: 2026-05-25T07:37:19.420Z)
Latitude
Longitude
8.92778°
Altitude
463.617 km
Speed
7.636 km/s
True Right ascension
00h 24m 39s
True Declination
0° 00' 00"
Sunlit
Object was in daylight at epoch
Visualization orbit readout
Latitude
Unknown
Longitude
Unknown
Altitude
Unknown
Speed
Unknown
Apparent Right ascension
Unknown
Apparent Declination
Unknown
Sunlit
N/A
Visualization observer readout
Local Sidereal Time
09:23:30
Azimuth
Unknown
Elevation
Unknown
Doppler factor
Unknown
Orbital elements
Apogee altitude
463.742 km
Perigee altitude
462.285 km
Semi-major axis
6,841.15 km
Eccentricity
0.00011
Inclination
53.1594°
RAAN
6.1658°
Arg. of periapsis
86.891°
True anomaly
273.20932°
Mean anomaly
273.2215°
Eccentric anomaly
273.21541°
Mean motion
3.83574 °/min
Orbital period
93.85 mins
BSTAR
0.00093274
Loading maneuver chart data...
Computing Atmospheric mass density...
Loading historical data...
Loading historical data...
Loading historical data...
Loading historical data...
Loading historical data...
Loading historical data...
Loading historical data...

Documentation

Showing up to 5 results
|